Location: Cuzcurrita-R�o Tir�n
(42.5415°N, 2.9642°W)
Time: 21:53:53
(UTC+00:00)

Envisat - Pass Details

Date: 17 January 2021
Orbit: 764 x 766 km, 98.1° (Epoch: 03 March)

Event Time Altitude Azimuth Distance (km) Brightness Sun altitude
Rises 17:26:47 0° 178° (S) 3,218 6.5 -4.2°
Reaches altitude 10° 17:29:08 10° 182° (S) 2,296 5.9 -4.6°
Maximum altitude 17:34:05 55° 260° (W) 923 3.9 -5.4°
Drops below altitude 10° 17:39:05 10° 338° (NNW) 2,313 5.5 -6.3°
Sets 17:41:27 0° 343° (NNW) 3,243 6.2 -6.7°
